Weather History for Morganton, NC

Change the Weather History Date:

Saturday, July 12, 2014

  Actual Average (KHKY) Record (KHKY)
Temperature  
Mean Temperature 76 °F -  
Max Temperature 88 °F 87 °F 98 °F (1993)
Min Temperature 64 °F 68 °F 56 °F (1953)
Cooling Degree Days 11    
Growing Degree Days 26 (Base 50)    
Moisture  
Dew Point 67 °F    
Average Humidity 77    
Maximum Humidity 100    
Minimum Humidity 40    
Precipitation  
Precipitation 0.00 in - - ()
Sea Level Pressure  
Sea Level Pressure 30.26 in    
Wind  
Wind Speed 1 mph (SSW)    
Max Wind Speed 6 mph    
Max Gust Speed -    
Visibility 8 miles    
Events      
Averages and records for this station are not official NWS values.
T = Trace of Precipitation, MM = Missing Value Source: NWS Daily Summary

Daily Weather History Graph

Daily Weather History Graph

Search for Another Location

Airport:

Trip Planner

Search our weather history database for the weather conditions in past years. The results will help you decide how hot, cold, wet, or windy it might be!

Date:

Astronomy

Jul. 12, 2014 Rise Set
Actual Time 6:19 AM EDT 8:44 PM EDT
Civil Twilight 5:50 AM EDT 9:13 PM EDT
Nautical Twilight 5:13 AM EDT 9:49 PM EDT
Astronomical Twilight 4:33 AM EDT 10:29 PM EDT
Moon 8:48 PM EDT (7/12) 6:34 AM EDT (7/12)
Length of Visible Light 15h 23m
Length of Day
14h 24m
Full, 100% of the Moon is Illuminated
Jul 12
Full
Jul 18
Last Quarter
Jul 26
New
Aug 3
First Quarter
Aug 10
Full

Hourly Weather History & Observations

Time (EDT) Temp. Heat Index Dew Point Humidity Pressure Visibility Wind Dir Wind Speed Gust Speed Precip Events Conditions
12:15 AM 68.5 °F - 67.8 °F 98% 30.29 in 5.0 mi Calm Calm - N/A   Scattered Clouds
12:35 AM 67.3 °F - 67.1 °F 99% 30.29 in 4.0 mi Calm Calm - N/A   Clear
12:55 AM 67.6 °F - 67.6 °F 100% 30.29 in 7.0 mi Calm Calm - N/A   Clear
1:15 AM 67.5 °F - 67.3 °F 99% 30.29 in 5.0 mi Calm Calm - N/A   Clear
1:55 AM 66.6 °F - 66.6 °F 100% 30.29 in 4.0 mi Calm Calm - N/A   Clear
2:15 AM 66.2 °F - 66.2 °F 100% 30.29 in 5.0 mi Calm Calm - N/A   Scattered Clouds
2:35 AM 65.8 °F - 65.8 °F 100% 30.28 in 5.0 mi Calm Calm - N/A   Scattered Clouds
2:55 AM 67.1 °F - 67.1 °F 100% 30.28 in 5.0 mi Calm Calm - N/A   Scattered Clouds
3:15 AM 66.9 °F - 66.9 °F 100% 30.28 in 4.0 mi Calm Calm - N/A   Scattered Clouds
3:35 AM 65.5 °F - 65.5 °F 100% 30.27 in 3.0 mi Calm Calm - N/A   Clear
3:55 AM 66.2 °F - 66.2 °F 100% 30.27 in 4.0 mi Calm Calm - N/A   Scattered Clouds
4:15 AM 68.0 °F - 68.0 °F 100% 30.27 in 4.0 mi Calm Calm - N/A   Mostly Cloudy
4:35 AM 68.5 °F - 68.5 °F 100% 30.27 in 5.0 mi Calm Calm - N/A   Overcast
4:55 AM 68.4 °F - 68.4 °F 100% 30.27 in 5.0 mi Calm Calm - N/A   Mostly Cloudy
5:15 AM 66.7 °F - 66.7 °F 100% 30.28 in 3.0 mi Calm Calm - N/A   Scattered Clouds
5:35 AM 66.0 °F - 66.0 °F 100% 30.28 in 2.0 mi Calm Calm - N/A   Scattered Clouds
5:55 AM 65.3 °F - 65.3 °F 100% 30.28 in 2.0 mi Calm Calm - N/A   Clear
6:15 AM 64.2 °F - 64.2 °F 100% 30.29 in 2.5 mi Calm Calm - N/A   Scattered Clouds
6:35 AM 64.6 °F - 64.6 °F 100% 30.29 in 1.5 mi Calm Calm - N/A   Mostly Cloudy
6:55 AM 66.6 °F - 66.6 °F 100% 30.29 in 2.0 mi Calm Calm - N/A   Scattered Clouds
7:15 AM 66.4 °F - 66.4 °F 100% 30.30 in 2.0 mi Calm Calm - N/A   Scattered Clouds
7:35 AM 67.8 °F - 67.8 °F 100% 30.29 in 2.5 mi Calm Calm - N/A   Scattered Clouds
7:55 AM 69.3 °F - 69.3 °F 100% 30.30 in 4.0 mi Calm Calm - N/A   Mostly Cloudy
8:15 AM 70.3 °F - 69.8 °F 98% 30.29 in 5.0 mi NNW 3.5 mph - N/A   Scattered Clouds
8:35 AM 70.9 °F - 69.1 °F 94% 30.30 in 7.0 mi NNW 4.6 mph - N/A   Mostly Cloudy
8:55 AM 71.6 °F - 69.3 °F 92% 30.30 in 7.0 mi Calm Calm - N/A   Overcast
9:15 AM 74.3 °F - 69.8 °F 86% 30.30 in 10.0 mi East 3.5 mph - N/A   Scattered Clouds
9:35 AM 76.3 °F - 69.6 °F 80% 30.30 in 10.0 mi Calm Calm - N/A   Clear
9:55 AM 77.4 °F - 70.0 °F 78% 30.30 in 10.0 mi Calm Calm - N/A   Scattered Clouds
10:15 AM 77.9 °F - 69.3 °F 75% 30.31 in 10.0 mi SSW 3.5 mph - N/A   Mostly Cloudy
10:35 AM 77.9 °F - 68.2 °F 72% 30.31 in 10.0 mi Calm Calm - N/A   Scattered Clouds
10:55 AM 79.9 °F - 68.4 °F 68% 30.30 in 10.0 mi Calm Calm - N/A   Mostly Cloudy
11:15 AM 81.7 °F 84.2 °F 66.9 °F 61% 30.30 in 10.0 mi SE 3.5 mph - N/A   Scattered Clouds
11:35 AM 82.2 °F 84.7 °F 66.9 °F 60% 30.30 in 10.0 mi South 3.5 mph - N/A   Scattered Clouds
11:55 AM 82.8 °F 84.5 °F 65.1 °F 55% 30.30 in 10.0 mi Calm Calm - N/A   Clear
12:15 PM 82.4 °F 85.0 °F 67.3 °F 60% 30.29 in 10.0 mi SSW 4.6 mph - N/A   Scattered Clouds
12:35 PM 83.5 °F 85.7 °F 66.4 °F 56% 30.29 in 10.0 mi ESE 3.5 mph - N/A   Mostly Cloudy
12:55 PM 85.5 °F 87.1 °F 64.9 °F 50% 30.29 in 10.0 mi ESE 3.5 mph - N/A   Mostly Cloudy
1:15 PM 84.2 °F 85.8 °F 64.6 °F 52% 30.29 in 10.0 mi Calm Calm - N/A   Scattered Clouds
1:35 PM 85.1 °F 86.1 °F 63.5 °F 48% 30.28 in 10.0 mi Calm Calm - N/A   Scattered Clouds
1:55 PM 86.2 °F 87.6 °F 64.2 °F 48% 30.28 in 10.0 mi SE 4.6 mph - N/A   Scattered Clouds
2:15 PM 87.1 °F 87.8 °F 62.8 °F 44% 30.27 in 10.0 mi SE 3.5 mph - N/A   Scattered Clouds
2:35 PM 87.6 °F 88.8 °F 63.7 °F 45% 30.26 in 10.0 mi SSE 5.8 mph - N/A   Scattered Clouds
2:55 PM 88.0 °F 89.0 °F 63.5 °F 44% 30.26 in 10.0 mi South 3.5 mph - N/A   Mostly Cloudy
3:15 PM 87.6 °F 88.8 °F 63.9 °F 45% 30.25 in 10.0 mi WSW 3.5 mph - N/A   Scattered Clouds
3:35 PM 87.8 °F 88.8 °F 63.3 °F 44% 30.26 in 10.0 mi South 4.6 mph - N/A   Scattered Clouds
3:55 PM 87.3 °F 88.9 °F 64.9 °F 47% 30.25 in 10.0 mi South 5.8 mph - N/A   Overcast
4:15 PM 87.4 °F 88.2 °F 63.3 °F 44% 30.24 in 10.0 mi SSW 4.6 mph - N/A   Mostly Cloudy
4:35 PM 87.8 °F 87.9 °F 61.3 °F 41% 30.23 in 10.0 mi SSW 3.5 mph - N/A   Clear
4:55 PM 87.8 °F 87.6 °F 61.0 °F 40% 30.23 in 10.0 mi Calm Calm - N/A   Clear
5:15 PM 88.2 °F 88.1 °F 60.8 °F 40% 30.22 in 10.0 mi WSW 3.5 mph - N/A   Scattered Clouds
5:35 PM 87.4 °F 88.5 °F 63.5 °F 45% 30.22 in 10.0 mi WSW 5.8 mph - N/A   Scattered Clouds
5:55 PM 84.9 °F 86.8 °F 65.3 °F 52% 30.22 in 10.0 mi Calm Calm - N/A   Scattered Clouds
6:15 PM 84.4 °F 86.3 °F 65.5 °F 53% 30.22 in 10.0 mi Calm Calm - N/A   Scattered Clouds
6:35 PM 82.6 °F 85.7 °F 68.2 °F 62% 30.22 in 10.0 mi West 5.8 mph - N/A   Scattered Clouds
6:55 PM 81.5 °F 84.2 °F 67.6 °F 63% 30.22 in 10.0 mi West 4.6 mph - N/A   Mostly Cloudy
7:15 PM 81.9 °F 84.1 °F 66.4 °F 59% 30.21 in 10.0 mi WNW 5.8 mph - N/A   Mostly Cloudy
7:35 PM 81.7 °F 84.5 °F 67.8 °F 63% 30.21 in 10.0 mi Calm Calm - N/A   Overcast
7:55 PM 80.6 °F 83.9 °F 69.8 °F 70% 30.21 in 10.0 mi Calm Calm - N/A   Overcast
8:15 PM 79.5 °F - 71.8 °F 77% 30.21 in 10.0 mi Calm Calm - N/A   Overcast
8:35 PM 79.2 °F - 69.4 °F 72% 30.21 in 10.0 mi Calm Calm - N/A   Overcast
8:55 PM 77.2 °F - 71.8 °F 83% 30.21 in 10.0 mi Calm Calm - N/A   Overcast
9:15 PM 76.5 °F - 71.6 °F 85% 30.21 in 10.0 mi Calm Calm - N/A   Overcast
9:35 PM 75.4 °F - 72.1 °F 90% 30.22 in 10.0 mi Calm Calm - N/A   Overcast
9:55 PM 75.2 °F - 71.8 °F 89% 30.22 in - Calm Calm - N/A   Overcast
10:15 PM 73.4 °F - 71.2 °F 93% 30.22 in - Calm Calm - N/A   Mostly Cloudy
10:35 PM 72.3 °F - 70.9 °F 95% 30.22 in 7.0 mi Calm Calm - N/A   Scattered Clouds
10:55 PM 71.4 °F - 70.5 °F 97% 30.22 in 7.0 mi Calm Calm - N/A   Clear
11:15 PM 73.4 °F - 71.4 °F 93% 30.22 in 10.0 mi Calm Calm - N/A   Clear
11:35 PM 70.2 °F - 69.8 °F 99% 30.22 in 5.0 mi Calm Calm - N/A   Scattered Clouds
11:55 PM 70.2 °F - 69.8 °F 99% 30.22 in 5.0 mi Calm Calm - N/A   Clear